This demonstration page uses our WeatherBlox Daily Observations layout. Learn more.

Left ArrowRight Arrow

34.16533, -84.80231

Hourly Observations for March 23, 2021

Temp ( °F °C ) Dew Point ( °F °C ) Humidity (%) Winds ( mph kmh ) Pressure ( in mb ) Visibility ( mi km ) Precip ( " mm )
12:53 am 00:53 Clear 56 13.3 43 6.1 62 62 Calm 30.06 1018 8 13 0.00 0.00
1:53 am 01:53 Clear 55 12.8 44 6.7 67 67 Calm 30.06 1018 10 16 0.00 0.00
2:53 am 02:53 Clear 56 13.3 43 6.1 62 62 ENE 3 6 30.06 1018 10 16 0.00 0.00
3:53 am 03:53 Clear 58 14.4 43 6.1 58 58 VRB 3 6 30.04 1017 10 16 0.00 0.00
4:53 am 04:53 Clear 60 15.6 44 6.7 56 56 E 6 9 30.03 1017 10 16 0.00 0.00
5:53 am 05:53 Clear 59 15 45 7.2 60 60 VRB 6 9 30.06 1018 10 16 0.00 0.00
6:53 am 06:53 Clear 58 14.4 46 7.8 65 65 E 5 7 30.06 1018 10 16 0.00 0.00
7:53 am 07:53 Mostly Sunny 59 15 45 7.2 60 60 ESE 10 17 30.04 1017 10 16 0.00 0.00
8:53 am 08:53 Sunny 59 15 45 7.2 60 60 VRB 6 9 30.09 1019 9 14 0.00 0.00
9:53 am 09:53 Sunny 60 15.6 45 7.2 58 58 VRB 7 11 30.08 1019 7 11 0.00 0.00
10:53 am 10:53 Mostly Sunny 61 16.1 45 7.2 56 56 VRB 6 9 30.09 1019 7 11 0.00 0.00
11:53 am 11:53 Sunny 63 17.2 46 7.8 54 54 E 10 17 30.05 1018 10 16 0.00 0.00
12:53 pm 12:53 Sunny 64 17.8 47 8.3 54 54 ESE 10 17 30.06 1018 10 16 0.00 0.00
1:32 pm 13:32 Hazy 65 18.3 47 8.3 52 52 SE 9 15 30.06 1018 6 10 0.00 0.00
1:53 pm 13:53 Sunny 66 18.9 48 8.9 52 52 ESE 10 17 30.03 1017 9 14 0.00 0.00
2:53 pm 14:53 Mostly Sunny 66 18.9 49 9.4 54 54 E 7 11 30.01 1016 10 16 0.00 0.00
3:53 pm 15:53 Cloudy 66 18.9 50 10 56 56 VRB 5 7 29.97 1015 10 16 0.00 0.00
4:53 pm 16:53 Cloudy 67 19.4 49 9.4 53 53 Calm 29.97 1015 10 16 0.00 0.00
5:53 pm 17:53 Cloudy 66 18.9 52 11.1 61 61 ENE 3 6 29.96 1015 10 16 0.00 0.00
6:53 pm 18:53 Cloudy 65 18.3 52 11.1 63 63 SSE 6 9 29.94 1014 10 16 0.00 0.00
7:53 pm 19:53 Cloudy 64 17.8 51 10.6 63 63 SSE 8 13 29.97 1015 10 16 0.00 0.00
8:53 pm 20:53 Cloudy with Light Rain 62 16.7 52 11.1 70 70 SSE 16 26 29.92 1013 10 16 0.01 0.25
9:53 pm 21:53 Cloudy 63 17.2 51 10.6 65 65 S 3 6 29.96 1015 10 16 0.00 0.00
10:53 pm 22:53 Mostly Cloudy 64 17.8 51 10.6 63 63 SE 16 26 29.94 1014 10 16 0.00 0.00
11:53 pm 23:53 Clear 63 17.2 51 10.6 65 65 SE 8 13 29.89 1012 10 16 0.00 0.00

Powered by AerisWeather